Regional Weather Roundup
Issued by NWS

Home | Current Version | Previous Version | Text Only | Print | Product List | Glossary Off
Versions: 1 2 3 4 5 6 7 8 9 10 11 12 13 14 15 16 17 18 19 20 21 22 23 24 25 26 27 28 29 30 31 32 33 34 35 36 37 38 39 40 41 42 43 44 45 46 47 48 49 50

000
ASUS43 KDTX 240810
RWRMI
MICHIGAN HOURLY REGIONAL WEATHER ROUNDUP
NATIONAL WEATHER SERVICE DETROIT/PONTIAC MI
400 AM EDT MON APR 24 2017

NOTE: "FAIR" INDICATES FEW OR NO CLOUDS BELOW 12,000 FEET WITH NO
SIGNIFICANT WEATHER AND/OR OBSTRUCTION TO VISIBILITY.

MIZ047>049-052>055-059>063-066>070-074>076-081>083-240900-
SOUTHEAST LOWER MICHIGAN

CITY           SKY/WX    TMP DP  RH WIND       PRES   REMARKS
ADRIAN         CLEAR     40  34  79 NE6       30.05R
ALMA           CLEAR     41  40  97 NE8       30.09S
ANN ARBOR      CLOUDY    43  36  76 CALM      30.06R
BAD AXE        CLOUDY    37  33  85 CALM      30.11S
CARO           PTCLDY    38  35  88 NE3       30.09F
DETROIT CITY   CLEAR     41  37  86 N7        30.08R
DETROIT        PTCLDY    43  37  79 N8        30.07R
FLINT          PTCLDY    40  36  86 E9        30.09S WCI  34
GROSSE ILE     CLEAR     43  40  90 NE6       30.05R
HILLSDALE      CLOUDY    39  34  81 CALM      30.03S
HOWELL         CLOUDY    42  38  83 NE3       30.05F

CITY           SKY/WX    TMP DP  RH WIND       PRES   REMARKS
JACKSON        PTCLDY    43  35  73 NE5       30.05R
LAMBERTVILLE   CLEAR     37  34  89 CALM      30.03S
LANSING        CLEAR     40  36  86 NE5       30.06F
LAPEER         FAIR      39  36  87 CALM      30.09S
MASON          CLOUDY    42  40  92 NE3       30.06S
MONROE         PTCLDY    44  38  80 NE5       30.04S
MT. CLEMENS    CLOUDY    39  39  99 N3        30.06S
PONTIAC        PTCLDY    42  36  79 NE7       30.06S
PORT HOPE        N/A     40  37  89 NE12      30.11S WCI  33
PORT HURON     CLOUDY    39  36  87 N6        30.09S WCI  35
TRI CITIES     CLEAR     41  38  89 E8        30.10F
MIDLAND        FAIR      42  35  76 E8        30.10S
TROY           CLOUDY    43  35  74 CALM      30.10R
SAGINAW HB     CLEAR     39  34  81 NE7       30.10S WCI  34
$$
MIZ043>046-050>051-056>058-064>065-071>073-077>080-240900-
SOUTHWEST LOWER MICHIGAN

CITY           SKY/WX    TMP DP  RH WIND       PRES   REMARKS
BATTLE CREEK   CLEAR     46  42  86 NE3       30.05S
BENTON HARBOR  CLEAR     35  31  85 CALM      30.02F
BIG RAPIDS     CLEAR     40  32  72 CALM      30.07F
COLDWATER      PTCLDY    43  41  93 CALM      30.03S
FREMONT        FAIR      43  33  65 E8        30.05S
HOLLAND        CLEAR     45  39  79 E7        30.04S
GRAND RAPIDS   CLEAR     42  39  89 E7        30.05S
IONIA          FAIR      42  37  80 NE8       30.06S
KALAMAZOO      CLEAR     44  35  70 CALM      30.04S
LUDINGTON      CLEAR     38  35  89 E7        30.04F WCI  32
MARSHALL       PTCLDY    41  36  81 CALM      30.03F
MOUNT PLEASANT CLEAR     39  34  80 NE5       30.08F
MUSKEGON       CLEAR     44  38  79 E7        30.04F
SOUTH HAVEN    CLEAR     40  32  72 E3        30.02F
$$
MIZ016>042-240900-
NORTHERN LOWER MICHIGAN

CITY           SKY/WX    TMP DP  RH WIND       PRES   REMARKS
ALPENA         PTCLDY    32  29  88 NE5       30.14F WCI  27
BEAVER ISLAND  PTCLDY    33  28  81 E8        30.12F WCI  26
BELLAIRE       CLEAR     33  27  79 CALM      30.10F
CADILLAC       CLEAR     35  31  85 E8        30.07R WCI  29
CHARLEVOIX     CLEAR     36  27  69 E9        30.13F WCI  29
FRANKFORT      CLEAR     38  26  63 E7        30.07F WCI  32
GAYLORD        CLEAR     34  22  61 NE6       30.09F WCI  29
GRAYLING       CLEAR     32  26  78 E3        30.10F
HARBOR SPRINGS CLEAR     33  27  80 NE8       30.12F WCI  25
HOUGHTON LAKE  CLEAR     36  25  64 E9        30.10S WCI  29
MANISTEE       CLEAR     35  29  78 E8        30.06F WCI  29
OSCODA         CLEAR     38  33  80 N5        30.13S WCI  35
PELLSTON       PTCLDY    31  25  78 CALM      30.13F
ROGERS CITY    PTCLDY    36  31  85 E7        30.15S WCI  30
TRAVERSE CITY  CLEAR     33  28  81 CALM      30.09F
$$
MIZ007>008-015-240900-
EASTERN UPPER MICHIGAN

CITY           SKY/WX    TMP DP  RH WIND       PRES   REMARKS
KINROSS        CLOUDY    34  26  72 NE8       30.15S WCI  27
MACKINAC ISLAN CLOUDY    34  28  80 E6        30.13F WCI  29
NEWBERRY       CLOUDY    30  26  86 NE6       30.12F WCI  24
S. S. MARIE    CLOUDY    37  26  64 CALM      30.15S
MUNISING         N/A     32  25  75 E3        30.12F
$$
MIZ004>006-011>014-085-240900-
CENTRAL UPPER MICHIGAN

CITY           SKY/WX    TMP DP  RH WIND       PRES   REMARKS
MANISTIQUE     PTCLDY    28  25  88 NE6       30.10F WCI  22
ESCANABA       CLEAR     31  24  75 NE5       30.10F WCI  26
MENOMINEE      CLEAR     35  27  72 E10       30.08F WCI  27
SAWYER-GWINN   CLOUDY    29  23  79 NE6       30.09F WCI  23
$$
MIZ001>003-009>011-084-240900-
WESTERN UPPER MICHIGAN

CITY           SKY/WX    TMP DP  RH WIND       PRES   REMARKS
IRON MOUNTAIN  CLEAR     29  18  63 VRB6      30.06F WCI  23
HOUGHTON       CLOUDY    31  21  66 E14       30.09F WCI  21
COPPER HARBOR    N/A     33  24  69 S5        30.13F WCI  29
IRONWOOD       CLOUDY    32  26  78 E12       30.02F WCI  23
$$

ABBREVIATIONS USED IN REMARKS
   TC - TEMPERATURE IN CELSIUS
  WCI - WIND CHILL INDEX
   HX - HEAT INDEX
  VSB - VISIBILITY





USA.gov is the U.S. government's official web portal to all federal, state and local government web resources and services.